Home   Weather   San Fernando   Past weeks

Flag for Trinidad and Tobago Past Weather in San Fernando, Trinidad and Tobago — Yesterday and Last 2 Weeks

82 °F

Passing clouds.

Feels Like: 89 °F
Forecast: N/A
Wind: No wind

Location: Piarco International Airport - Trinidad

Current Time: Oct 26, 2016 at 7:12:28 PM

Latest Report: Oct 26, 2016 at 6:00 PM

Visibility: N/A

Pressure: 29.74 "Hg

Humidity: 79%

Dew Point: 75 °F

Location of San FernandoLocation

Past Weather in San Fernando — Graph


San Fernando Temperature Yesterday

Maximum temperature yesterday: 90 °F (at 10:00 AM)
Minimum temperature yesterday: 73 °F (at 5:00 AM)
Average temperature yesterday: 81 °F

High & Low Weather Summary for the Past Weeks

High97 °F (Oct 17, 2:00 PM)100% (Oct 25, 1:00 AM)29.95 "Hg (Oct 25, 1:00 AM)
Low73 °F (Oct 25, 5:00 AM)44% (Oct 21, 2:00 PM)29.71 "Hg (Oct 25, 3:00 PM)
Average84 °F76%29.84 "Hg
* Reported Oct 11 6:00 PM — Oct 26 6:00 PM, San Fernando, Weather by CustomWeather, © 2016

Note: Actual official high and low records may vary slightly from our data, if they occured in-between our weather recording intervals... More about our weather records


San Fernando Weather History for the Previous 24 Hours

Scroll right to see more
Time TempWeatherWind HumidityBarometerVisibility
6:00 PM
Wed, Oct 26
82 °FPassing clouds.No wind79%29.74 "HgN/A
4:00 PM90 °FPassing clouds.12 mph55%29.74 "HgN/A
2:00 PM90 °FPassing clouds.13 mph59%29.74 "HgN/A
1:00 PM93 °FScattered clouds.12 mph56%29.77 "HgN/A
12:00 PM91 °FScattered clouds.15 mph63%29.83 "HgN/A
11:00 AM90 °FScattered clouds.13 mph67%29.86 "HgN/A
10:00 AM86 °FScattered clouds.5 mph70%29.86 "HgN/A
9:00 AM82 °FPassing clouds.7 mph74%29.89 "HgN/A
8:00 AM81 °FScattered clouds.No wind79%29.86 "HgN/A
5:00 AM75 °FPassing clouds.5 mph94%29.77 "HgN/A
4:00 AM77 °FPassing clouds.8 mph89%29.77 "HgN/A
3:00 AM79 °FScattered showers. Passing clouds.No wind89%29.77 "HgN/A
2:00 AM79 °FScattered showers. Passing clouds.No wind89%29.77 "HgN/A
1:00 AM79 °FPassing clouds.No wind89%29.80 "HgN/A
12:00 AM79 °FPassing clouds.No wind94%29.80 "HgN/A
11:00 PM
Tue, Oct 25
81 °FPassing clouds.6 mph89%29.83 "HgN/A
10:00 PM81 °FPassing clouds.6 mph84%29.80 "HgN/A
9:00 PM81 °FPassing clouds.6 mph89%29.80 "HgN/A
8:00 PM81 °FPassing clouds.6 mph84%29.77 "HgN/A
7:00 PM81 °FPassing clouds.3 mph84%29.74 "HgN/A
Weather by CustomWeather, © 2016

See weather overviewHow to use our weather pages